• In Hungary
  • List of Countries
  • For 7 days
  • Water Temperature
  • Satellite Maps
  • Weather Map
  • News
  • Weather Widgets
  • user-avatar
    Login

    Hourly Weather Chikoy

    Today, 19 October, Thursday

    Time Temperature Precipitation Wind Pressure Humidity
    00:00 +2°C° 0 mm 1 mps 710 mmHg 86%
    01:00 +2°C° 0 mm 1 mps 710 mmHg 88%
    02:00 +2°C° 0 mm 1 mps 709 mmHg 88%
    03:00 +2°C° 0 mm 1 mps 709 mmHg 89%
    04:00 +1°C° 0 mm 1 mps 709 mmHg 90%
    05:00 +2°C° 0 mm 1 mps 709 mmHg 89%
    06:00 +2°C° 0 mm 1 mps 709 mmHg 89%
    07:00 +2°C° 0 mm 1 mps 708 mmHg 85%
    08:00 +4°C° 0 mm 1 mps 708 mmHg 76%
    09:00 +6°C° 0 mm 1 mps 708 mmHg 68%
    10:00 +7°C° 0 mm 1 mps 708 mmHg 59%
    11:00 +8°C° 0 mm 1 mps 708 mmHg 56%
    12:00 +9°C° 0 mm 1 mps 707 mmHg 54%
    13:00 +10°C° 0 mm 1 mps 707 mmHg 51%
    14:00 +10°C° 0 mm 1 mps 707 mmHg 55%
    15:00 +9°C° 0 mm 1 mps 707 mmHg 59%
    16:00 +9°C° 0 mm 1 mps 708 mmHg 63%
    17:00 +7°C° 0 mm 1 mps 708 mmHg 68%
    18:00 +5°C° 0 mm 1 mps 709 mmHg 74%
    19:00 +4°C° 0 mm 2 mps 709 mmHg 77%
    20:00 +3°C° 0 mm 2 mps 710 mmHg 80%
    21:00 +3°C° 0 mm 1 mps 710 mmHg 84%
    22:00 +3°C° 0 mm 1 mps 710 mmHg 88%
    23:00 +2°C° 0 mm 1 mps 711 mmHg 88%

    Tomorrow, 20 October, Friday

    Time Temperature Precipitation Wind Pressure Humidity
    00:00 +1°C° 0 mm 0 mps 711 mmHg 89%
    01:00 +1°C° 0 mm 0 mps 712 mmHg 90%
    02:00 +1°C° 0 mm 0 mps 712 mmHg 90%
    03:00 0°C° 0 mm 0 mps 712 mmHg 90%
    04:00 0°C° 0 mm 0 mps 712 mmHg 90%
    05:00 0°C° 0 mm 0 mps 712 mmHg 90%
    06:00 0°C° 0 mm 0 mps 712 mmHg 90%
    07:00 0°C° 0 mm 0 mps 712 mmHg 89%
    08:00 +3°C° 0 mm 1 mps 712 mmHg 81%
    09:00 +5°C° 0 mm 1 mps 712 mmHg 72%
    10:00 +7°C° 0 mm 1 mps 712 mmHg 63%
    11:00 +8°C° 0 mm 1 mps 712 mmHg 60%
    12:00 +9°C° 0 mm 1 mps 711 mmHg 57%
    13:00 +10°C° 0 mm 1 mps 711 mmHg 54%
    14:00 +9°C° 0 mm 1 mps 711 mmHg 58%
    15:00 +8°C° 0 mm 1 mps 711 mmHg 61%
    16:00 +8°C° 0 mm 1 mps 710 mmHg 64%
    17:00 +6°C° 0 mm 1 mps 710 mmHg 69%
    18:00 +5°C° 0 mm 1 mps 711 mmHg 73%
    19:00 +4°C° 0 mm 1 mps 711 mmHg 78%
    20:00 +3°C° 0 mm 1 mps 711 mmHg 78%
    21:00 +3°C° 0 mm 1 mps 711 mmHg 79%
    22:00 +3°C° 0 mm 1 mps 710 mmHg 79%
    23:00 +3°C° 0 mm 1 mps 710 mmHg 79%

    Day after tomorrow, 21 October, Saturday

    Time Temperature Precipitation Wind Pressure Humidity
    00:00 +3°C° 0 mm 1 mps 710 mmHg 78%
    01:00 +3°C° 0 mm 1 mps 710 mmHg 78%
    02:00 +3°C° 0.1 mm 1 mps 710 mmHg 77%
    03:00 +3°C° 0.1 mm 1 mps 710 mmHg 76%
    04:00 +3°C° 0.1 mm 1 mps 710 mmHg 75%
    05:00 +3°C° 0.1 mm 1 mps 710 mmHg 74%
    06:00 +3°C° 0.1 mm 1 mps 710 mmHg 73%
    07:00 +3°C° 0.1 mm 1 mps 711 mmHg 72%
    08:00 +4°C° 0.2 mm 1 mps 711 mmHg 71%
    09:00 +5°C° 0.2 mm 1 mps 711 mmHg 69%
    10:00 +5°C° 0.2 mm 1 mps 711 mmHg 68%
    11:00 +6°C° 0.2 mm 1 mps 711 mmHg 69%
    12:00 +6°C° 0.2 mm 1 mps 711 mmHg 71%
    13:00 +6°C° 0.2 mm 1 mps 711 mmHg 72%
    14:00 +6°C° 0.1 mm 1 mps 711 mmHg 76%
    15:00 +5°C° 0.1 mm 1 mps 711 mmHg 79%
    16:00 +5°C° 0.1 mm 1 mps 712 mmHg 82%
    17:00 +4°C° 0 mm 1 mps 712 mmHg 85%
    18:00 +2°C° 0 mm 0 mps 712 mmHg 88%
    19:00 +1°C° 0 mm 0 mps 713 mmHg 91%
    20:00 +1°C° 0 mm 0 mps 713 mmHg 91%
    21:00 +2°C° 0 mm 1 mps 714 mmHg 92%
    22:00 +1°C° 0 mm 1 mps 714 mmHg 92%
    23:00 +1°C° 0 mm 1 mps 714 mmHg 92%

    22 October, Sunday

    Time Temperature Precipitation Wind Pressure Humidity
    00:00 +1°C° 0 mm 1 mps 714 mmHg 93%
    01:00 +1°C° 0 mm 1 mps 714 mmHg 93%
    02:00 +1°C° 0 mm 1 mps 714 mmHg 93%
    03:00 -1°C° 0 mm 2 mps 714 mmHg 93%
    04:00 -1°C° 0 mm 2 mps 714 mmHg 93%
    05:00 -1°C° 0 mm 2 mps 714 mmHg 92%
    06:00 -1°C° 0 mm 2 mps 714 mmHg 92%
    07:00 -1°C° 0 mm 2 mps 714 mmHg 91%
    08:00 +2°C° 0 mm 2 mps 714 mmHg 83%
    09:00 +4°C° 0 mm 2 mps 714 mmHg 76%
    10:00 +7°C° 0 mm 3 mps 714 mmHg 68%
    11:00 +8°C° 0 mm 3 mps 713 mmHg 64%
    12:00 +9°C° 0 mm 3 mps 713 mmHg 60%
    13:00 +10°C° 0 mm 4 mps 712 mmHg 56%
    14:00 +9°C° 0 mm 3 mps 712 mmHg 60%
    15:00 +8°C° 0 mm 3 mps 712 mmHg 64%
    16:00 +7°C° 0 mm 3 mps 711 mmHg 68%
    17:00 +6°C° 0 mm 2 mps 711 mmHg 73%
    18:00 +4°C° 0 mm 2 mps 712 mmHg 78%
    19:00 +3°C° 0 mm 2 mps 712 mmHg 82%
    20:00 +3°C° 0 mm 2 mps 712 mmHg 82%
    21:00 +2°C° 0 mm 2 mps 712 mmHg 82%
    22:00 +2°C° 0 mm 2 mps 712 mmHg 82%
    23:00 +2°C° 0 mm 2 mps 711 mmHg 81%

    23 October, Monday

    Time Temperature Precipitation Wind Pressure Humidity
    00:00 +2°C° 0 mm 2 mps 711 mmHg 81%
    01:00 +2°C° 0 mm 2 mps 711 mmHg 80%
    02:00 +1°C° 0 mm 2 mps 711 mmHg 79%
    03:00 +1°C° 0 mm 2 mps 710 mmHg 78%
    04:00 0°C° 0 mm 3 mps 710 mmHg 77%
    05:00 +1°C° 0 mm 2 mps 710 mmHg 76%
    06:00 +1°C° 0 mm 2 mps 710 mmHg 75%
    07:00 +1°C° 0 mm 2 mps 710 mmHg 74%
    08:00 +3°C° 0 mm 3 mps 710 mmHg 67%
    09:00 +5°C° 0 mm 3 mps 710 mmHg 59%
    10:00 +7°C° 0 mm 4 mps 709 mmHg 51%
    11:00 +9°C° 0 mm 3 mps 709 mmHg 50%
    12:00 +10°C° 0 mm 3 mps 709 mmHg 48%
    13:00 +11°C° 0 mm 3 mps 708 mmHg 47%
    14:00 +10°C° 0 mm 3 mps 708 mmHg 52%
    15:00 +9°C° 0 mm 2 mps 708 mmHg 58%
    16:00 +9°C° 0 mm 1 mps 708 mmHg 63%
    17:00 +7°C° 0 mm 1 mps 709 mmHg 67%
    18:00 +6°C° 0 mm 1 mps 709 mmHg 72%
    19:00 +5°C° 0 mm 1 mps 710 mmHg 76%
    20:00 +4°C° 0 mm 1 mps 710 mmHg 78%
    21:00 +4°C° 0 mm 1 mps 711 mmHg 79%
    22:00 +3°C° 0 mm 1 mps 711 mmHg 80%
    23:00 +3°C° 0 mm 1 mps 711 mmHg 81%

    24 October, Tuesday

    Time Temperature Precipitation Wind Pressure Humidity
    00:00 +3°C° 0 mm 1 mps 711 mmHg 82%
    01:00 +3°C° 0 mm 1 mps 711 mmHg 82%
    02:00 +3°C° 0 mm 1 mps 712 mmHg 82%
    03:00 +2°C° 0 mm 1 mps 712 mmHg 83%
    04:00 +2°C° 0 mm 1 mps 712 mmHg 83%
    05:00 +2°C° 0 mm 1 mps 712 mmHg 82%
    06:00 +2°C° 0 mm 1 mps 712 mmHg 81%
    07:00 +2°C° 0 mm 1 mps 713 mmHg 80%
    08:00 +5°C° 0 mm 1 mps 713 mmHg 72%
    09:00 +7°C° 0 mm 1 mps 713 mmHg 64%
    10:00 +9°C° 0 mm 1 mps 713 mmHg 55%
    11:00 +10°C° 0 mm 1 mps 712 mmHg 53%
    12:00 +11°C° 0 mm 1 mps 712 mmHg 50%
    13:00 +12°C° 0 mm 1 mps 711 mmHg 47%
    14:00 +11°C° 0 mm 1 mps 711 mmHg 52%
    15:00 +10°C° 0 mm 1 mps 711 mmHg 56%
    16:00 +9°C° 0 mm 1 mps 711 mmHg 61%
    17:00 +8°C° 0 mm 1 mps 711 mmHg 65%
    18:00 +6°C° 0 mm 1 mps 711 mmHg 69%
    19:00 +5°C° 0 mm 1 mps 712 mmHg 73%
    20:00 +5°C° 0 mm 1 mps 712 mmHg 74%
    21:00 +4°C° 0 mm 1 mps 712 mmHg 75%
    22:00 +4°C° 0 mm 1 mps 712 mmHg 76%
    23:00 +4°C° 0 mm 1 mps 711 mmHg 77%
    Show more